Weather reports worldwide

Advertisment
Santiago de Compostela/Labacolla, Spain (8042): temperature & dewpoint: 11.06.2019 05:00:00 - 17.06.2019 05:00:00 (CEST)Santiago de Compostela/Labacolla, Spain (8042): wind speed: 11.06.2019 05:00:00 - 17.06.2019 05:00:00 (CEST)Santiago de Compostela/Labacolla, Spain (8042): wind direction: 11.06.2019 05:00:00 - 17.06.2019 05:00:00 (CEST)Santiago de Compostela/Labacolla, Spain (8042): reduced air pressure: 11.06.2019 05:00:00 - 17.06.2019 05:00:00 (CEST)Santiago de Compostela/Labacolla, Spain (8042): visibility: 11.06.2019 05:00:00 - 17.06.2019 05:00:00 (CEST)
Date & Time tt [°C] td [°C] ff [km/h] ff [kn] dd ppp [hPa] vv [km]
17.06.2019 05:00:00 10,9 10,9 2 1 NE 1018,3 -
17.06.2019 04:00:00 10,7 10,7 8 4 N 1018,5 1,0
17.06.2019 03:00:00 10,8 10,4 9 5 NW 1019,0 9
17.06.2019 02:00:00 10,9 10,4 9 5 NW 1019,4 10
17.06.2019 01:00:00 11,3 10,6 11 6 NNW 1019,5 14
17.06.2019 00:00:00 11,7 10,7 15 8 NNW 1019,8 20
16.06.2019 23:00:00 12,7 9,9 15 8 NNW 1019,7 25
16.06.2019 22:00:00 14,2 10,2 16 9 N 1019,2 30
16.06.2019 21:00:00 16,1 11,0 18 10 N 1018,7 30
16.06.2019 20:00:00 17,6 11,9 22 12 N 1018,2 30
16.06.2019 19:00:00 18,8 12,7 24 13 N 1017,8 30
16.06.2019 18:00:00 19,7 12,8 18 10 N 1017,8 30
16.06.2019 17:00:00 22,3 14,1 15 8 N 1017,0 35
16.06.2019 16:00:00 22,0 12,0 9 5 NNW 1017,4 30
16.06.2019 15:00:00 20,9 9,9 8 4 WNW 1018,0 30
16.06.2019 14:00:00 19,3 10,8 4 2 WSW 1018,8 30
16.06.2019 13:00:00 18,6 11,6 8 4 N 1019,2 30
16.06.2019 12:00:00 16,4 10,3 4 2 ENE 1020,0 30
16.06.2019 11:00:00 14,5 10,6 5 3 NNE 1020,5 10
16.06.2019 10:00:00 12,3 9,6 4 2 NNE 1020,9 22
16.06.2019 09:00:00 10,6 8,2 2 1 ENE 1021,2 4,5
16.06.2019 08:00:00 8,5 7,6 0 0 N 1021,4 3,5
16.06.2019 07:00:00 8,5 7,6 4 2 N 1021,3 29
16.06.2019 06:00:00 8,3 7,1 0 0 N 1021,3 30
16.06.2019 05:00:00 8,5 7,3 0 0 N 1021,7 10
16.06.2019 04:00:00 8,8 8,2 0 0 N 1022,1 23
16.06.2019 03:00:00 9,5 9,0 0 0 N 1022,3 18
16.06.2019 02:00:00 10,0 9,2 4 2 NNW 1022,8 15
16.06.2019 01:00:00 10,1 9,2 5 3 NNW 1023,1 24
16.06.2019 00:00:00 10,9 9,7 4 2 N 1022,8 24
15.06.2019 23:00:00 11,7 8,9 8 4 WNW 1022,4 30
15.06.2019 22:00:00 14,3 9,1 5 3 WSW 1021,6 30
15.06.2019 21:00:00 15,7 8,9 8 4 WSW 1021,4 30
15.06.2019 20:00:00 16,6 9,1 9 5 WSW 1021,3 30
15.06.2019 19:00:00 17,2 9,5 15 8 W 1021,3 30
15.06.2019 18:00:00 16,7 10,1 11 6 W 1021,7 30
15.06.2019 17:00:00 14,7 10,3 9 5 S 1022,3 30
15.06.2019 16:00:00 14,4 9,4 11 6 WSW 1022,3 30
15.06.2019 15:00:00 14,0 10,2 11 6 W 1022,4 30
15.06.2019 14:00:00 14,1 10,5 8 4 WSW 1022,2 30
15.06.2019 13:00:00 14,1 9,8 9 5 WSW 1021,9 30
15.06.2019 12:00:00 14,2 9,2 13 7 S 1021,7 30
15.06.2019 11:00:00 13,9 9,2 9 5 SW 1021,7 30
15.06.2019 10:00:00 12,2 9,6 11 6 SW 1021,4 30
15.06.2019 09:00:00 - - - - - - -
15.06.2019 08:00:00 10,1 10,1 8 4 SSW 1020,9 8
15.06.2019 07:00:00 9,9 9,9 9 5 SW 1020,5 4,4
15.06.2019 06:00:00 10,2 10,2 9 5 SW 1019,9 6
15.06.2019 05:00:00 10,4 10,1 8 4 SW 1019,8 15
15.06.2019 04:00:00 10,6 10,1 4 2 WSW 1019,9 23
15.06.2019 03:00:00 11,1 10,8 5 3 SW 1019,9 14
15.06.2019 02:00:00 11,3 10,8 4 2 WSW 1019,9 30
15.06.2019 01:00:00 11,0 10,7 5 3 SW 1019,7 30
15.06.2019 00:00:00 11,9 10,8 9 5 SW 1019,2 10
14.06.2019 23:00:00 12,1 10,8 8 4 SW 1018,7 30
14.06.2019 22:00:00 13,1 10,5 8 4 SW 1017,8 30
14.06.2019 21:00:00 13,7 9,0 11 6 W 1017,4 30
14.06.2019 20:00:00 14,4 9,0 13 7 W 1016,8 35
14.06.2019 19:00:00 15,0 9,4 16 9 W 1016,1 30
14.06.2019 18:00:00 15,5 8,8 13 7 WSW 1015,6 30
14.06.2019 17:00:00 16,7 9,4 18 10 W 1015,0 35
14.06.2019 16:00:00 15,3 9,7 18 10 W 1015,2 30
14.06.2019 15:00:00 16,6 8,3 15 8 W 1014,4 35
14.06.2019 14:00:00 17,2 6,0 8 4 WSW 1014,5 30
14.06.2019 13:00:00 15,1 6,8 5 3 W 1014,8 30
14.06.2019 12:00:00 14,4 5,9 4 2 W 1014,7 30
14.06.2019 11:00:00 13,2 8,5 4 2 N 1014,8 10
14.06.2019 10:00:00 10,3 9,1 4 2 ESE 1015,0 18
14.06.2019 09:00:00 7,6 7,6 4 2 SE 1015,2 7
14.06.2019 08:00:00 6,6 6,6 0 0 N 1015,3 6
14.06.2019 07:00:00 5,1 5,1 8 4 NW 1015,3 6
14.06.2019 06:00:00 4,5 4,5 5 3 W 1015,0 -
14.06.2019 05:00:00 6,8 6,1 4 2 SSW 1014,6 20
14.06.2019 04:00:00 7,6 7,0 0 0 N 1014,4 18
14.06.2019 03:00:00 7,5 6,6 0 0 N 1014,9 28
14.06.2019 02:00:00 8,2 7,4 5 3 N 1015,1 30
14.06.2019 01:00:00 9,3 7,8 5 3 N 1015,3 30
14.06.2019 00:00:00 10,0 7,8 8 4 N 1015,1 30
13.06.2019 23:00:00 10,1 8,4 9 5 N 1015,0 30
13.06.2019 22:00:00 12,2 9,0 8 4 N 1014,1 30
13.06.2019 21:00:00 13,3 9,5 9 5 N 1013,7 30
13.06.2019 20:00:00 12,8 8,8 11 6 N 1013,6 30
13.06.2019 19:00:00 13,2 8,6 15 8 N 1013,5 30
13.06.2019 18:00:00 13,4 9,1 16 9 N 1013,2 30
13.06.2019 17:00:00 13,5 8,2 9 5 N 1013,0 30
13.06.2019 16:00:00 15,1 7,7 11 6 W 1012,6 30
13.06.2019 15:00:00 14,7 6,8 8 4 W 1012,8 30
13.06.2019 14:00:00 14,5 7,3 4 2 NNW 1012,7 30
13.06.2019 13:00:00 14,2 6,0 5 3 NNW 1012,7 30
13.06.2019 12:00:00 12,8 6,2 5 3 NW 1013,2 30
13.06.2019 11:00:00 11,1 7,7 4 2 WNW 1013,3 20
13.06.2019 10:00:00 10,8 8,3 4 2 E 1013,4 29
13.06.2019 09:00:00 8,4 8,2 4 2 S 1013,6 6
13.06.2019 08:00:00 6,8 6,8 2 1 NE 1013,6 8
13.06.2019 07:00:00 6,1 6,0 4 2 S 1013,9 2,2
13.06.2019 06:00:00 6,7 6,6 4 2 NNW 1013,8 10
13.06.2019 05:00:00 6,6 6,3 8 4 NW 1014,0 18
13.06.2019 04:00:00 6,3 5,9 5 3 WNW 1014,3 11
13.06.2019 03:00:00 7,6 7,3 8 4 NW 1014,2 15
13.06.2019 02:00:00 7,0 6,4 8 4 NNW 1014,8 25
13.06.2019 01:00:00 8,3 7,4 11 6 NNW 1015,0 20
13.06.2019 00:00:00 9,5 7,5 5 3 N 1015,3 30
12.06.2019 23:00:00 10,3 7,7 9 5 N 1015,2 30
12.06.2019 22:00:00 11,0 8,4 9 5 N 1014,9 30
12.06.2019 21:00:00 11,4 9,0 8 4 N 1014,9 30
12.06.2019 20:00:00 11,8 9,4 11 6 N 1015,0 30
12.06.2019 19:00:00 12,3 9,3 13 7 N 1015,1 30
12.06.2019 18:00:00 13,1 9,0 9 5 N 1015,3 30
12.06.2019 17:00:00 13,6 8,7 5 3 NNW 1015,5 30
12.06.2019 16:00:00 13,5 8,8 8 4 N 1015,7 30
12.06.2019 15:00:00 14,7 7,8 4 2 NNE 1015,9 30
12.06.2019 14:00:00 12,5 7,4 18 10 NNW 1016,9 30
12.06.2019 13:00:00 13,7 7,4 8 4 NNW 1016,9 30
12.06.2019 12:00:00 12,4 7,4 8 4 N 1017,3 30
12.06.2019 11:00:00 11,5 7,6 13 7 NW 1017,6 20
12.06.2019 10:00:00 10,3 10,0 4 2 N 1017,8 16
12.06.2019 09:00:00 7,7 7,7 0 0 N 1018,6 -
12.06.2019 08:00:00 7,2 7,1 4 2 S 1018,6 0,9
12.06.2019 07:00:00 7,5 7,4 2 1 W 1018,5 11
12.06.2019 06:00:00 8,5 8,2 4 2 SW 1018,4 11
12.06.2019 05:00:00 7,6 7,2 0 0 N 1019,0 15
12.06.2019 04:00:00 8,0 7,6 0 0 N 1019,5 12
12.06.2019 03:00:00 8,1 7,5 0 0 N 1020,2 15
12.06.2019 02:00:00 9,2 8,4 5 3 N 1020,7 15
12.06.2019 01:00:00 9,1 8,3 8 4 N 1020,7 18
12.06.2019 00:00:00 9,3 8,2 11 6 N 1021,0 21
11.06.2019 23:00:00 10,2 8,3 9 5 N 1020,8 30
11.06.2019 22:00:00 11,4 7,7 16 9 N 1020,6 30
11.06.2019 21:00:00 12,3 7,2 13 7 N 1020,7 30
11.06.2019 20:00:00 13,1 7,6 13 7 N 1020,7 35
11.06.2019 19:00:00 13,0 8,1 15 8 N 1020,8 30
11.06.2019 18:00:00 14,6 7,6 16 9 N 1020,4 30
11.06.2019 17:00:00 14,7 7,2 16 9 N 1020,3 40
11.06.2019 16:00:00 15,1 7,4 18 10 N 1020,4 30
11.06.2019 15:00:00 14,2 7,7 26 14 N 1020,6 40
11.06.2019 14:00:00 13,5 8,1 18 10 N 1020,9 35
11.06.2019 13:00:00 12,5 7,6 16 9 N 1021,3 30
11.06.2019 12:00:00 12,9 7,6 16 9 N 1021,0 30
11.06.2019 11:00:00 11,1 7,6 15 8 N 1021,0 30
11.06.2019 10:00:00 11,6 8,4 13 7 N 1020,7 28
11.06.2019 09:00:00 10,1 9,0 5 3 N 1020,5 30
11.06.2019 08:00:00 8,4 8,1 4 2 N 1020,6 20
11.06.2019 07:00:00 8,3 7,9 11 6 N 1020,0 30
11.06.2019 06:00:00 8,7 8,1 15 8 N 1019,7 30
11.06.2019 05:00:00 9,4 9,1 9 5 N 1019,6 4,0

tt = temperature
td = dewpoint
ff = wind speed
dd = wind direction
ppp = reduced air pressure
vv = visibility

Next stations